Location: �perlecques
(50.8057°N, 2.1521°E)
Time: 06:59:07
(UTC+00:00)

Vanguard 1 Rocket - Pass Details

Date: 08 August 2021
Orbit: 650 x 4226 km, 34.3° (Epoch: 22 September)

Event Time Altitude Azimuth Distance (km) Brightness Sun altitude
Rises 10:30:50 0° 255° (WSW) 8,241 12.1 51.1°
Reaches altitude 10° 10:37:27 10° 250° (WSW) 6,879 11.9 51.7°
Maximum altitude 10:55:44 41° 190° (S) 3,390 11.7 53.1°
Drops below altitude 10° 11:06:09 10° 125° (SE) 4,017 11.3 53.7°
Sets 11:08:53 0° 117° (ESE) 4,644 11.4 53.9°
